Flag for Germany Weather past 2 weeks in Wismar, Mecklenburg-Western Pomerania, Germany

Now
79 °F

Partly sunny.


Feels Like: 79 °F
Forecast: 62 / 78 °F
Wind: 6 mph from East

Location: Schwerin

Current Time: Jul 23, 2014 at 12:27:21 AM

Latest Report: Jul 22, 2014 at 7:00 PM


Visibility: 25 mi

Pressure: 30.10 "Hg

Humidity: 40%

Dew point: 53 °F

Location of WismarLocation

Historic Weather in Wismar — Graph

°F

Wismar temperature yesterday

Maximum temperature yesterday: 83 °F (at 3:00 PM)
Minimum temperature yesterday: 63 °F (at 3:00 AM)
Average temperature yesterday: 72 °F

Past Weeks' High & Low Weather Summary

 TemperatureHumidityPressure
High87 °F (Jul 19, 5:00 PM)99% (Jul 8, 9:00 AM)30.20 "Hg (Jul 8, 9:00 AM)
Low57 °F (Jul 12, 3:00 AM)32% (Jul 19, 4:00 PM)29.62 "Hg (Jul 8, 7:00 PM)
Average71 °F69%29.95 "Hg
* Reported Jul 7 7:00 PM — Jul 22 7:00 PM, Wismar, Weather by CustomWeather, © 2014

Note: Actual official high and low records may vary slightly from our data, if they occured in-between our weather recording intervals... More about our weather records

Advertising

Wismar weather history for previous 24 hours

 ConditionsComfort  
Time TempWeatherWind HumidityBarometerVisibility
7:00 PM
Jul 22
79 °FPartly sunny.6 mph40%30.10 "Hg25 mi
6:00 PM80 °FScattered clouds.7 mph39%30.09 "Hg19 mi
5:00 PM82 °FScattered clouds.7 mph39%30.08 "Hg28 mi
4:00 PM81 °FPartly sunny.5 mph42%30.08 "Hg28 mi
3:00 PM83 °FScattered clouds.5 mph40%30.08 "Hg22 mi
2:00 PM81 °FScattered clouds.6 mph43%30.09 "Hg28 mi
1:00 PM80 °FPassing clouds.6 mph47%30.09 "Hg19 mi
12:00 PM78 °FPassing clouds.6 mph55%30.08 "Hg19 mi
10:00 AM73 °FScattered clouds.3 mph69%30.08 "Hg19 mi
9:00 AM70 °FPartly sunny.5 mph76%30.07 "Hg16 mi
8:00 AM67 °FLow clouds.6 mph89%30.06 "Hg8 mi
7:00 AM64 °FPartly sunny.6 mph93%30.06 "Hg6 mi
6:00 AM63 °FLow clouds.5 mph95%30.05 "Hg6 mi
4:00 AM63 °FOvercast.6 mph93%30.03 "Hg9 mi
3:00 AM63 °FPassing clouds.5 mph92%30.03 "Hg8 mi
2:00 AM64 °FPassing clouds.3 mph91%30.03 "Hg9 mi
1:00 AM64 °FPassing clouds.5 mph88%30.02 "Hg10 mi
12:00 AM65 °FOvercast.5 mph83%30.01 "Hg12 mi
Weather by CustomWeather, © 2014

See weather overviewHow to use our weather pages